Content
SEND FEEDBACK

Daily
Averages
Monthly
Summary
United States of America

BUENA VISTA, VIRGINIA


Home > North America > United States > Virginia
Elevation: 84 feet     Latitude: 37 44N     Longitude: 079 21W

WEATHER
 
SELECT A DAY
Number of Records: 211,786;   Date Range: 1/1/95 - 9/20/14
 
SHARE

PRINT THIS DATA

[ ← Previous Day ]
WEATHER ALMANAC - JUNE 9, 2014
[ Next Day → ]
[ °C ]   °F
Weather ElementAverageHighLow
Temperature73.2 °F84.2 °F (3:54 pm)64.4 °F (6:05 am)
Dewpoint66.1 °F70 °F (9:54 pm)62.6 °F (10:54 am)
Humidity80.2 %100 % (6:05 am)54 % (4:54 pm)
Barometer29.89 in29.93 in (10:54 am)29.85 in (5:54 pm)
Wind Speed3.6 mph9.2 mph (3:54 pm)
Weather ElementAverage
Visibility9.2 mi
Wind DirectionESE (105 °)

Weather ElementTotal
Precipitation---
Cooling Degree Days9.3 (Base 65)
Growing Degree Days24.3 (Base 50)
Averaged from 28 records on June 9, 2014
WEATHER CONDITIONS BREAKOUT
WIND DIRECTION BREAKOUT
WEATHER BY HOUR - JUNE 9, 2014
[ °C ]   °F
Local TimeTemperatureDewpointHumidityBarometerVisibilityWind DirectionWind SpeedGust SpeedPrecipitationEventsConditions
1:16 AM69.8 °F66.2 °F88 %29.91 in10.0 miSSW (210°)5.8 mphOvercast
1:54 AM69.1 °F66.0 °F90 %29.89 in10.0 miSSW (200°)6.9 mphOvercast
2:52 AM69.8 °F66.2 °F88 %29.91 in10.0 miSSW (200°)5.8 mphOvercast
2:54 AM69.1 °F66.0 °F90 %29.88 in10.0 miSSW (200°)5.8 mphOvercast
3:23 AM68.0 °F66.2 °F94 %29.91 in10.0 miSouth (190°)3.5 mphOvercast
3:54 AM69.1 °F66.0 °F90 %29.88 in10.0 miSouth (180°)3.5 mphOvercast
4:54 AM66.9 °F64.9 °F93 %29.87 in10.0 miCalmMostly Cloudy
5:04 AM66.2 °F64.4 °F94 %29.89 in10.0 miCalmScattered Clouds
5:54 AM64.9 °F64.0 °F97 %29.88 in7.0 miCalmClear
6:05 AM64.4 °F64.4 °F100 %29.90 in1.2 miCalmClear
6:19 AM64.4 °F64.4 °F100 %29.91 in3.0 miCalmClear
6:54 AM66.0 °F64.9 °F96 %29.88 in6.0 miCalmClear
7:54 AM70.0 °F66.9 °F90 %29.91 in10.0 miCalmClear
8:54 AM73.0 °F66.9 °F81 %29.92 in10.0 miSSE (160°)3.5 mphPartly Cloudy
9:54 AM75.0 °F66.9 °F76 %29.91 in10.0 miVariable3.5 mphPartly Cloudy
10:54 AM78.8 °F62.6 °F57 %29.93 in10.0 miVariable3.5 mphClear
11:54 AM79.0 °F63.0 °F58 %29.90 in10.0 miSW (220°)6.9 mphScattered Clouds
12:54 PM81.0 °F64.9 °F58 %29.89 in10.0 miSW (220°)5.8 mphMostly Cloudy
1:54 PM82.0 °F64.9 °F56 %29.89 in10.0 miVariable3.5 mphScattered Clouds
3:54 PM84.2 °F66.2 °F55 %29.89 in10.0 miSouth (190°)9.2 mphMostly Cloudy
4:54 PM82.9 °F64.9 °F54 %29.86 in10.0 miVariable3.5 mphPartly Cloudy
5:54 PM82.9 °F66.0 °F56 %29.85 in10.0 miCalmPartly Cloudy
6:54 PM80.1 °F69.1 °F69 %29.86 in10.0 miSouth (180°)9.2 mphClear
7:54 PM79.0 °F69.1 °F72 %29.87 in10.0 miSouth (180°)6.9 mphClear
8:54 PM77.0 °F68.0 °F74 %29.87 in10.0 miSouth (180°)6.9 mphClear
9:54 PM72.0 °F70.0 °F93 %29.88 in10.0 miSSW (200°)3.5 mph0.00 inMostly Cloudy
10:54 PM73.0 °F69.1 °F87 %29.90 in10.0 miSW (230°)4.6 mphMostly Cloudy
11:54 PM71.1 °F68.0 °F90 %29.89 in10.0 miCalmScattered Clouds
Hourly data recorded from KLYH, located miles away from Buena Vista, Virginia







STORIES FROM OUR PARTNERS